GPS BIIRM-6 (PRN 07) (32711 NORAD) Tracking and Keplerian Element Data

This shows tracking and keplerian element data for the satellite.

Feedback or suggestion? Click here.




ElementValue
Catalog32711
NameGPS BIIRM-6 (PRN 07)
Epoch Orbit12375
Epoch Day34.5582404
Epoch Year2025
RAAN169.8263
Inclination54.4579
Eccentricity0.019292
Argument of Perigee241.2394
Mean Anonmoly116.7841
Mean Motion2.00553972
Decay Rate5.8E-07
L11 32711U 08012A 25034.55824040 .00000058 00000+0 00000+0 0 9998
L22 32711 54.4579 169.8263 0192920 241.2394 116.7841 2.00553972123752



Live tracking and technical data element details for GPS BIIRM-6 (PRN 07) (NORAD 32711). GPS BIIRM-6 (PRN 07) can be tracked NOW for your location showing map with azimuth and elevation plus other details from your city location.







IsCatalogInMostPopularTable: catalog: 32711, numindb: 498
Update: records affected: 1



GetName: 32711 GPS BIIRM-6 (PRN 07)

Hit Count: updated at: Sat, 17 May 2025 08:16:39 GMT